FW7560 Weather Reports


time (UTC)temp
C
wind
direction
speed
KPH
gust
KPH
rain 1hr
cm
rain 24hr
cm
rain mn
cm
humidity
%
barometer
mb
20260906111558 18 0.0 0.0 0.46 0.48 0.46 98 1017.8
20260906110110 18 0.0 0.0 0.00 0.03 0.00 98 1017.7
20260906104604 18 0.0 0.0 0.00 0.03 0.00 98 1017.6
20260906103106 18 0.0 0.0 0.00 0.03 0.00 98 1017.5
20260906101606 18 0.0 0.0 0.00 0.03 0.00 98 1017.2
20260906100112 18 0.0 0.0 0.00 0.03 0.00 98 1017.3
20260906094601 18 0.0 0.0 0.00 0.03 0.00 98 1017.1
20260906093107 18 0.0 0.0 0.00 0.03 0.00 98 1017.1
20260906091616 17 0.0 0.0 0.00 0.03 0.00 97 1017.1
20260906090112 17 0.0 0.0 0.00 0.03 0.00 97 1016.8
20260906084605 17 0.0 0.0 0.00 0.03 0.00 97 1017.0
20260906083058 17 0.0 0.0 0.00 0.03 0.00 97 1016.9
20260906081604 17 0.0 0.0 0.00 0.03 0.00 97 1017.0
20260906080111 17 0.0 0.0 0.00 0.03 0.00 97 1016.9
20260906074601 17 0.0 0.0 0.00 0.03 0.00 97 1017.0
20260906073104 17 0.0 0.0 0.00 0.03 0.00 97 1017.0
20260906071616 18 0.0 0.0 0.00 0.03 0.00 97 1017.1
20260906070109 18 0.0 0.0 0.00 0.03 0.00 97 1017.0
20260906064602 18 0.0 0.0 0.00 0.03 0.00 96 1017.0
20260906063106 18 0.0 0.0 0.00 0.03 0.00 96 1017.3
20260906061558 18 0.0 0.0 0.00 0.03 0.00 96 1017.6
20260906060155 18 0.0 0.0 0.00 0.03 0.00 96 1017.6
20260906054611 18 0.0 0.0 0.00 0.03 0.00 96 1017.7
20260906053105 18 0.0 0.0 0.00 0.03 0.00 96 1017.7
20260906051606 18 0.0 0.0 0.00 0.03 0.00 96 1017.6
20260906050116 18 0.0 0.0 0.00 0.03 0.00 95 1017.9
20260906044558 18 0.0 0.0 0.00 0.03 0.00 95 1017.7
20260906043100 19 0.0 0.0 0.00 0.03 0.00 95 1017.5
20260906041604 19 0.0 0.0 0.00 0.03 0.00 94 1017.6
20260906040106 19 0.0 0.0 0.00 0.03 0.00 93 1017.7
20260906034601 20 0.0 0.0 0.00 0.03 0.03 93 1017.7
20260906033059 20 0.0 0.0 0.00 0.03 0.03 93 1018.1
20260906031630 20 0.0 0.0 0.00 0.03 0.03 92 1018.2
20260906030104 20 0.0 0.0 0.00 0.03 0.03 92 1018.4
20260906024605 20 0.0 0.0 0.00 0.03 0.03 91 1018.6
20260906023109 21 0.0 0.0 0.00 0.03 0.03 90 1018.4
20260906021555 21 0.0 0.0 0.00 0.03 0.03 88 1018.5
20260906020105 21 0.0 0.0 0.00 0.03 0.03 87 1018.5
20260906014557 22 0.0 0.0 0.00 0.03 0.03 86 1018.4
20260906013105 22 0.0 0.0 0.00 0.03 0.03 85 1018.4
20260906011607 22 0.0 0.0 0.00 0.03 0.03 85 1018.3
20260906010059 22 0.0 0.0 0.00 0.03 0.03 83 1018.0
20260906004602 23 0.0 0.0 0.00 0.03 0.03 81 1018.0
20260906003057 23 0.0 0.0 0.00 0.03 0.03 80 1017.7
20260906001556 23 0.0 0.0 0.00 0.03 0.03 79 1017.8
20260906000105 23 0.0 0.0 0.00 0.03 0.03 78 1017.7
20260905234601 23 0.0 0.0 0.00 0.03 0.03 76 1017.6
20260905233103 24 0.0 0.0 0.00 0.03 0.03 75 1017.4
20260905231616 25 0.0 0.0 0.00 0.03 0.03 73 1017.7
20260905230112 25 0.0 0.0 0.00 0.03 0.03 71 1017.7
20260905224559 25 0.0 0.0 0.00 0.03 0.03 70 1017.6
20260905223105 25 0.0 0.0 0.00 0.03 0.03 68 1017.5
20260905221607 26 0.0 0.0 0.00 0.03 0.03 67 1017.7
20260905220111 26 0.0 0.0 0.00 0.03 0.03 65 1017.4
20260905214608 27 0.0 0.0 0.00 0.03 0.03 63 1017.4
20260905213056 27 0.0 0.0 0.00 0.03 0.03 63 1017.3
20260905211605 27 0.0 0.0 0.00 0.03 0.03 63 1017.1
20260905210108 27 0.0 0.0 0.00 0.03 0.03 63 1017.1
20260905204556 27 0.0 0.0 0.00 0.76 0.03 66 1017.1
20260905203102 27 0.0 0.0 0.00 0.76 0.03 68 1016.9
20260905201559 27 0.0 0.0 0.00 0.76 0.03 67 1017.0
20260905200130 27 0.0 0.0 0.00 0.76 0.03 64 1017.2
20260905194604 27 0.0 0.0 0.00 0.76 0.03 63 1017.2
20260905193103 27 0.0 0.0 0.00 0.76 0.03 61 1017.5
20260905191605 28 0.0 0.0 0.00 0.76 0.03 64 1017.5
20260905190104 27 0.0 0.0 0.00 0.76 0.03 68 1017.6
20260905184606 27 0.0 0.0 0.00 0.76 0.03 74 1017.8
20260905183059 26 0.0 0.0 0.00 0.76 0.03 77 1018.0
20260905181603 26 0.0 0.0 0.00 0.76 0.03 76 1018.2
20260905180116 26 0.0 0.0 0.00 0.76 0.03 78 1018.4
20260905174559 25 0.0 0.0 0.00 0.76 0.03 78 1018.4
20260905173114 25 0.0 0.0 0.00 0.76 0.03 79 1018.5
20260905171606 24 0.0 0.0 0.00 0.76 0.03 83 1018.2
20260905170106 23 0.0 0.0 0.00 0.76 0.03 86 1018.6
20260905164615 23 0.0 0.0 0.00 0.76 0.03 86 1019.0
20260905163058 22 0.0 0.0 0.00 0.76 0.03 87 1019.5
20260905161608 22 0.0 0.0 0.00 0.76 0.03 88 1020.0
20260905160105 22 0.0 0.0 0.00 0.76 0.03 87 1020.3
20260905154605 22 0.0 0.0 0.00 0.76 0.03 87 1020.5
20260905153104 22 0.0 0.0 0.00 0.76 0.03 87 1020.7
20260905151602 22 0.0 0.0 0.00 0.76 0.03 88 1020.7
20260905150104 21 0.0 0.0 0.00 0.76 0.03 90 1020.6
20260905144556 22 0.0 0.0 0.00 0.76 0.03 88 1020.3
20260905143105 24 0.0 0.0 0.00 0.76 0.03 86 1020.3
20260905141605 24 0.0 0.0 0.00 0.76 0.03 86 1019.3
20260905140112 24 0.0 0.0 0.03 0.76 0.03 86 1019.4
20260905134606 24 0.0 0.0 0.03 0.76 0.03 87 1019.3
20260905133059 23 0.0 0.0 0.03 0.76 0.03 89 1019.4
20260905131557 22 0.0 0.0 0.03 0.76 0.03 91 1019.3
20260905130106 21 0.0 0.0 0.00 0.74 0.00 96 1019.3
20260905124604 20 0.0 0.0 0.00 0.74 0.00 99 1019.4
20260905123105 20 0.0 0.0 0.00 0.74 0.00 99 1019.4
20260905121601 19 0.0 0.0 0.00 0.74 0.00 99 1019.3
20260905120109 18 0.0 0.0 0.00 0.74 0.00 99 1019.0
20260905114611 18 0.0 0.0 0.00 0.74 0.00 99 1018.9
20260905113101 18 0.0 0.0 0.00 0.74 0.00 99 1018.8